User: anonymous   Login
Location: Bogis-Bossey
(46.3500°N, 6.1667°E)
Time: 06:59:31
(UTC+00:00)
Language:

Cosmos 2123 Rocket - Orbit

View from above orbital plane
View from above orbital plane
View from above satellite
View from above satellite

Ground track
Ground track

The orbit data is extracted from the following two-line orbital elements,

1 21090U 91007B   22340.82323678  .00000013  00000-0 -24622-5 0  9995
2 21090  82.9214 190.1316 0020021 205.3444 154.6732 13.76444600598654
Epoch (UTC): 06 December 2022 19:45:27
Eccentricity: 0.0020021
inclination: 82.9214°
perigee height: 962 km
apogee height: 991 km
right ascension of ascending node: 190.1316°
argument of perigee: 205.3444°
revolutions per day: 13.76444600
mean anomaly at epoch: 154.6732°
orbit number at epoch: 59865

The dashed part of the orbit path shows where the satellite is in the earth's shadow,  

DLR